TimeCST,TemperatureF,Dew PointF,Humidity,Sea Level PressureIn,VisibilityMPH,Wind Direction,Wind SpeedMPH,Gust SpeedMPH,PrecipitationIn,Events,Conditions,WindDirDegrees,DateUTC
12:15 AM,29.8,16.7,58,30.07,10.0,WNW,15.0,19.6,N/A,,Overcast,300,2013-11-26 06:15:00
12:35 AM,29.3,16.2,58,30.07,10.0,NNW,13.8,20.7,N/A,,Overcast,330,2013-11-26 06:35:00
12:55 AM,29.1,16.2,58,30.08,10.0,NW,12.7,18.4,N/A,,Overcast,320,2013-11-26 06:55:00
1:15 AM,28.8,15.8,58,30.09,10.0,NW,12.7,24.2,N/A,,Overcast,310,2013-11-26 07:15:00
1:35 AM,28.4,15.4,58,30.09,10.0,NW,16.1,21.9,N/A,,Overcast,310,2013-11-26 07:35:00
1:55 AM,28.0,16.0,61,30.10,10.0,WNW,11.5,19.6,N/A,,Overcast,300,2013-11-26 07:55:00
2:15 AM,28.0,15.1,58,30.10,10.0,WNW,8.1,-,N/A,,Overcast,300,2013-11-26 08:15:00
2:35 AM,27.9,15.8,61,30.10,10.0,WNW,11.5,-,N/A,,Overcast,290,2013-11-26 08:35:00
2:55 AM,27.5,17.2,65,30.10,10.0,WNW,8.1,17.3,N/A,,Overcast,300,2013-11-26 08:55:00
3:15 AM,27.1,18.1,69,30.09,10.0,NW,9.2,-,N/A,,Overcast,310,2013-11-26 09:15:00
3:35 AM,27.0,18.5,70,30.08,10.0,WNW,10.4,-,N/A,Snow,Light Snow,290,2013-11-26 09:35:00
3:55 AM,26.6,19.4,74,30.08,10.0,WNW,8.1,-,N/A,Snow,Light Snow,290,2013-11-26 09:55:00
4:15 AM,26.4,18.1,71,30.08,10.0,WNW,16.1,24.2,N/A,Snow,Light Snow,290,2013-11-26 10:15:00
4:35 AM,26.1,16.2,66,30.09,10.0,West,16.1,24.2,N/A,,Overcast,280,2013-11-26 10:35:00
4:55 AM,25.2,14.2,63,30.10,10.0,WNW,19.6,25.3,N/A,,Overcast,290,2013-11-26 10:55:00
5:15 AM,24.3,12.9,62,30.11,10.0,WNW,16.1,24.2,N/A,,Overcast,300,2013-11-26 11:15:00
5:35 AM,23.2,13.1,65,30.11,10.0,WNW,16.1,21.9,N/A,,Mostly Cloudy,290,2013-11-26 11:35:00
5:55 AM,22.6,12.7,66,30.12,10.0,WNW,17.3,25.3,N/A,,Scattered Clouds,300,2013-11-26 11:55:00
6:15 AM,21.9,12.7,68,30.13,10.0,WNW,10.4,16.1,N/A,,Scattered Clouds,300,2013-11-26 12:15:00
6:35 AM,21.4,12.9,70,30.14,10.0,WNW,16.1,25.3,N/A,,Mostly Cloudy,290,2013-11-26 12:35:00
6:55 AM,20.8,10.8,65,30.15,10.0,WNW,20.7,26.5,N/A,,Mostly Cloudy,300,2013-11-26 12:55:00
7:15 AM,20.3,9.1,62,30.16,10.0,NW,15.0,21.9,N/A,,Overcast,320,2013-11-26 13:15:00
7:35 AM,18.3,7.2,62,30.18,10.0,NNW,16.1,21.9,N/A,,Mostly Cloudy,340,2013-11-26 13:35:00
7:55 AM,17.4,6.1,61,30.19,10.0,NNW,15.0,21.9,N/A,,Scattered Clouds,330,2013-11-26 13:55:00
8:15 AM,17.4,3.6,55,30.20,10.0,NW,11.5,20.7,N/A,,Clear,320,2013-11-26 14:15:00
8:35 AM,17.6,2.1,51,30.21,10.0,NW,12.7,19.6,N/A,,Clear,320,2013-11-26 14:35:00
8:55 AM,18.0,2.8,52,30.22,10.0,NW,11.5,18.4,N/A,,Clear,320,2013-11-26 14:55:00
9:15 AM,17.6,4.6,57,30.22,10.0,WNW,11.5,23.0,N/A,,Clear,300,2013-11-26 15:15:00
9:35 AM,18.3,5.2,57,30.23,10.0,WNW,9.2,23.0,N/A,,Clear,300,2013-11-26 15:35:00
9:55 AM,19.2,5.2,54,30.25,10.0,WNW,12.7,23.0,N/A,,Scattered Clouds,300,2013-11-26 15:55:00
10:15 AM,18.5,5.0,56,30.25,10.0,WNW,15.0,21.9,N/A,,Mostly Cloudy,300,2013-11-26 16:15:00
10:35 AM,18.1,5.9,59,30.26,7.0,NW,15.0,23.0,N/A,,Overcast,320,2013-11-26 16:35:00
10:55 AM,17.8,9.5,70,30.25,4.0,NW,12.7,20.7,N/A,Snow,Light Snow,320,2013-11-26 16:55:00
11:15 AM,19.0,7.5,61,30.25,10.0,NW,12.7,19.6,N/A,,Overcast,310,2013-11-26 17:15:00
11:35 AM,19.9,8.2,61,30.26,7.0,NW,15.0,24.2,N/A,Snow,Light Snow,310,2013-11-26 17:35:00
11:55 AM,18.9,6.6,59,30.26,10.0,NW,15.0,23.0,N/A,,Overcast,320,2013-11-26 17:55:00
12:15 PM,18.7,10.0,69,30.26,7.0,NW,15.0,25.3,N/A,Snow,Light Snow,310,2013-11-26 18:15:00
12:35 PM,18.9,7.5,61,30.26,7.0,NW,12.7,24.2,N/A,,Overcast,310,2013-11-26 18:35:00
12:55 PM,19.4,2.3,48,30.25,10.0,NW,16.1,25.3,N/A,,Mostly Cloudy,310,2013-11-26 18:55:00
1:15 PM,20.1,3.4,48,30.25,10.0,NNW,17.3,23.0,N/A,,Mostly Cloudy,330,2013-11-26 19:15:00
1:35 PM,20.8,3.9,48,30.25,10.0,NNW,8.1,17.3,N/A,,Mostly Cloudy,330,2013-11-26 19:35:00
1:55 PM,20.3,2.5,46,30.26,10.0,NNW,12.7,27.6,N/A,,Mostly Cloudy,330,2013-11-26 19:55:00
2:15 PM,20.8,3.4,47,30.25,10.0,NNW,13.8,24.2,N/A,,Mostly Cloudy,330,2013-11-26 20:15:00
2:35 PM,19.6,3.2,49,30.26,10.0,NNW,10.4,20.7,N/A,,Scattered Clouds,330,2013-11-26 20:35:00
2:55 PM,19.0,4.8,54,30.26,10.0,WNW,15.0,23.0,N/A,,Mostly Cloudy,300,2013-11-26 20:55:00
3:15 PM,19.9,4.5,51,30.27,10.0,NNW,13.8,18.4,N/A,,Scattered Clouds,340,2013-11-26 21:15:00
3:35 PM,20.5,5.9,53,30.27,10.0,NW,15.0,23.0,N/A,,Mostly Cloudy,320,2013-11-26 21:35:00
3:55 PM,18.7,4.8,55,30.28,10.0,NW,16.1,23.0,N/A,,Scattered Clouds,320,2013-11-26 21:55:00
4:15 PM,18.3,4.1,54,30.29,10.0,NW,11.5,21.9,N/A,,Clear,320,2013-11-26 22:15:00
4:35 PM,17.8,4.1,55,30.29,10.0,NW,13.8,-,N/A,,Clear,320,2013-11-26 22:35:00
4:55 PM,18.3,5.0,56,30.31,10.0,NNW,13.8,21.9,N/A,,Mostly Cloudy,330,2013-11-26 22:55:00
5:15 PM,18.0,5.2,57,30.31,10.0,NW,10.4,-,N/A,,Overcast,320,2013-11-26 23:15:00
5:35 PM,17.6,5.9,60,30.32,10.0,NW,9.2,-,N/A,,Mostly Cloudy,320,2013-11-26 23:35:00
5:55 PM,18.3,6.3,59,30.33,10.0,NW,13.8,17.3,N/A,,Overcast,320,2013-11-26 23:55:00
6:15 PM,18.3,6.6,60,30.33,10.0,NNW,15.0,18.4,N/A,,Overcast,330,2013-11-27 00:15:00
6:35 PM,18.0,6.8,62,30.34,10.0,NNW,13.8,18.4,N/A,,Overcast,330,2013-11-27 00:35:00
6:55 PM,17.4,5.5,60,30.34,10.0,NNW,10.4,23.0,N/A,,Mostly Cloudy,340,2013-11-27 00:55:00
7:15 PM,16.7,5.5,62,30.35,10.0,NNW,9.2,-,N/A,,Scattered Clouds,340,2013-11-27 01:15:00
7:35 PM,16.5,5.5,62,30.35,10.0,NW,10.4,-,N/A,,Clear,320,2013-11-27 01:35:00
7:55 PM,15.8,5.9,65,30.36,10.0,NNW,6.9,-,N/A,,Clear,330,2013-11-27 01:55:00
8:15 PM,15.1,5.9,67,30.36,10.0,NW,5.8,-,N/A,,Clear,320,2013-11-27 02:15:00
8:35 PM,14.9,5.9,68,30.35,10.0,NW,8.1,-,N/A,,Clear,320,2013-11-27 02:35:00
8:55 PM,14.7,5.9,68,30.35,10.0,NW,9.2,-,N/A,,Clear,320,2013-11-27 02:55:00
9:15 PM,14.4,5.9,69,30.36,10.0,NW,6.9,-,N/A,,Clear,320,2013-11-27 03:15:00
9:35 PM,14.0,5.9,70,30.36,10.0,NW,8.1,-,N/A,,Clear,320,2013-11-27 03:35:00
9:55 PM,13.8,5.9,71,30.36,10.0,NNW,5.8,-,N/A,,Clear,330,2013-11-27 03:55:00
10:15 PM,13.6,5.7,71,30.37,10.0,NNW,6.9,-,N/A,,Clear,330,2013-11-27 04:15:00
10:35 PM,13.1,5.7,72,30.37,10.0,North,5.8,-,N/A,,Clear,350,2013-11-27 04:35:00
10:55 PM,12.9,5.7,73,30.38,10.0,North,4.6,-,N/A,,Clear,350,2013-11-27 04:55:00
11:15 PM,12.4,5.5,74,30.38,10.0,North,5.8,-,N/A,,Clear,360,2013-11-27 05:15:00
11:35 PM,12.2,5.5,75,30.38,10.0,NNW,8.1,-,N/A,,Clear,340,2013-11-27 05:35:00
11:55 PM,12.0,5.5,75,30.38,10.0,NNW,4.6,-,N/A,,Clear,340,2013-11-27 05:55:00